Theta_e
274 274 274 274 274 275 275 275 275 275 275 275 274 274 272 271 268 267 267 269 270 273 275 272 275 277 277 278 279 279 278 279 278 277 277 277 278 279 281 282 284 286 287 288 288 288 289 291 291 292 294 297 298 299 301 301 304 305 307 307 306 305 306 307 307 309 311 312 313 313 315 317 319 319
272 273 273 273 273 274 274 274 275 275 274 274 273 273 273 272 269 269 267 268 271 272 274 274 273 276 276 277 278 278 278 279 279 278 277 277 277 279 280 280 281 283 285 285 285 287 288 289 290 291 293 294 296 298 300 301 302 303 306 307 306 305 305 306 307 309 310 310 311 311 312 313 315 316
271 271 271 272 272 273 273 273 273 273 273 273 273 273 273 272 272 270 269 267 271 273 271 273 275 275 276 277 276 277 277 278 278 277 277 277 278 279 278 279 280 281 283 283 284 285 286 287 289 290 291 292 293 295 297 298 299 301 304 305 306 305 305 306 308 309 309 310 310 310 310 311 311 311
271 271 270 271 271 272 272 272 272 272 273 273 273 273 272 272 272 272 270 268 267 272 272 273 274 275 275 276 275 275 276 277 278 277 277 277 278 277 277 278 279 280 281 282 283 284 286 287 288 288 289 290 292 293 294 295 296 299 301 302 302 304 304 306 306 306 307 309 310 311 311 311 310 310
270 270 269 269 270 271 270 271 271 272 272 273 272 272 272 271 272 271 270 268 268 271 273 273 273 274 275 273 274 274 274 275 276 277 276 277 276 276 276 276 278 279 280 281 282 283 285 285 286 287 288 289 290 291 292 293 295 298 297 297 299 302 304 304 304 305 306 306 309 310 311 311 310 308
269 269 269 269 269 269 269 269 269 271 271 272 271 271 271 271 271 272 270 269 268 267 271 271 274 273 274 272 275 273 273 274 275 275 275 276 276 276 276 276 277 279 280 281 282 283 284 285 285 286 287 287 289 290 291 293 295 294 294 294 295 298 301 303 303 305 306 307 309 310 311 311 310 309
268 268 268 268 269 269 268 268 268 268 269 270 270 270 271 271 271 271 271 270 268 268 269 271 271 272 273 272 272 274 274 274 275 274 274 274 275 276 276 276 277 278 280 281 282 283 283 284 284 285 286 287 288 290 291 291 290 290 291 292 293 295 296 298 300 303 304 306 307 309 309 310 309 308
267 267 267 267 268 268 267 268 268 268 268 268 269 269 270 270 270 271 271 271 269 269 267 269 270 271 271 272 273 274 274 273 273 274 274 275 275 275 276 276 277 278 280 281 281 281 282 283 284 285 285 286 287 288 289 289 289 289 290 291 292 293 294 295 296 299 299 300 303 305 307 307 307 305
268 268 267 268 268 268 267 267 267 268 268 268 268 268 269 269 270 270 270 270 270 268 267 268 270 271 271 272 272 272 271 272 273 273 273 273 273 274 275 277 278 278 279 279 280 280 281 281 282 284 285 286 286 287 288 288 289 289 289 290 290 292 292 293 294 296 298 298 299 301 303 304 302 299
268 268 268 268 268 268 267 267 267 268 267 268 268 267 268 268 268 268 269 269 269 268 268 268 268 269 269 269 270 271 272 271 271 271 272 273 274 274 274 275 276 277 277 277 277 279 280 281 282 283 284 284 286 286 287 288 288 288 289 290 290 291 292 292 293 294 296 297 297 298 300 300 298 298
268 268 268 268 268 268 267 267 267 267 268 268 267 268 267 268 268 268 268 268 268 268 267 267 268 268 269 270 268 271 272 271 271 270 270 270 273 274 274 273 275 276 276 278 279 279 279 280 280 282 283 284 285 285 286 287 288 288 289 289 290 290 291 292 292 293 295 296 297 297 297 298 298 298
267 268 268 268 269 268 268 268 268 267 267 268 267 268 268 268 267 267 267 267 267 267 267 267 267 268 268 269 270 271 271 270 270 271 270 269 271 272 273 273 273 275 275 275 277 278 279 280 281 282 282 283 284 285 285 285 286 287 288 289 290 290 291 292 292 293 294 295 296 296 296 297 297 298
268 268 268 268 269 269 269 270 270 269 269 267 267 267 268 267 267 266 267 267 267 267 266 266 267 267 267 268 268 268 268 268 268 271 271 271 272 272 272 273 274 274 274 275 275 276 277 278 280 281 280 281 282 282 284 285 285 286 287 288 289 290 291 291 292 293 294 295 295 296 296 296 297 297
267 268 268 268 270 270 270 270 270 271 271 270 269 268 268 267 267 266 266 266 266 266 266 266 266 266 266 267 267 267 268 270 270 270 270 269 270 271 270 272 273 275 275 274 274 276 280 279 279 281 281 282 282 282 282 283 284 285 286 288 289 290 290 291 292 292 293 294 295 295 296 296 296 296
266 267 268 268 269 270 270 270 270 271 272 272 272 272 271 270 268 266 266 266 266 266 266 266 266 266 266 267 268 268 268 269 269 269 270 269 269 268 268 267 272 275 274 275 275 277 280 280 279 280 281 282 283 283 283 284 285 286 286 287 288 289 290 291 292 292 293 293 294 295 295 295 296 296
266 266 267 268 268 269 269 269 269 270 272 272 273 273 273 272 272 271 268 267 266 266 266 266 267 267 266 267 268 268 268 268 269 269 269 269 268 268 268 268 268 272 276 273 273 274 278 278 278 280 281 282 283 284 285 286 286 287 287 287 287 288 290 290 291 291 292 293 293 294 294 295 295 295
266 267 268 268 269 269 270 270 270 269 269 271 272 273 273 273 273 273 273 272 269 268 267 266 266 267 268 267 268 269 269 270 268 269 269 269 269 269 268 269 270 272 274 273 273 272 275 278 278 278 281 282 283 284 286 287 287 287 288 288 287 288 289 290 290 291 291 292 293 293 294 294 294 294
267 268 268 269 269 270 270 271 270 270 269 270 270 271 271 271 272 273 274 273 273 271 269 268 267 269 269 268 269 271 271 270 268 268 268 269 269 268 268 270 271 273 274 271 272 272 275 277 276 276 279 282 283 284 285 286 287 287 288 288 288 288 289 289 290 290 290 291 292 292 293 293 294 294
269 269 270 270 271 271 271 271 271 270 269 269 269 270 270 271 271 271 271 272 272 272 271 270 270 270 271 271 271 271 272 272 270 270 269 270 270 271 271 271 272 272 274 274 273 269 273 277 276 277 279 281 282 283 285 286 287 287 287 288 288 288 288 288 289 289 290 290 291 292 292 292 293 293
270 270 271 271 272 272 273 273 275 273 271 270 269 269 269 270 270 271 273 275 275 273 273 273 272 271 272 274 272 273 272 272 272 272 272 271 270 269 268 267 270 271 275 276 274 272 274 276 276 277 280 280 280 282 283 285 286 287 287 287 288 288 288 288 289 289 289 289 290 290 291 292 292 292
271 271 272 272 273 273 273 275 276 276 274 270 269 268 268 269 269 270 271 275 276 277 277 277 277 276 276 276 276 276 276 274 273 272 270 269 270 268 267 268 269 270 273 276 277 275 274 276 277 277 279 280 280 281 282 283 285 287 287 287 288 288 288 289 289 289 289 290 290 290 290 291 291 291
271 272 273 274 273 274 274 276 276 277 275 270 269 268 268 267 267 268 270 271 272 276 277 278 278 278 277 277 277 277 277 277 276 272 268 270 270 268 269 268 270 272 274 275 278 275 274 276 277 277 279 281 281 282 282 283 284 286 287 288 288 288 288 289 289 289 289 290 290 290 290 290 290 290
271 272 273 274 274 274 275 277 277 277 275 271 270 269 268 268 267 268 270 270 269 270 271 272 274 274 276 276 276 276 277 277 277 275 272 272 271 269 270 270 271 270 271 275 278 274 275 276 277 277 276 275 279 282 283 283 283 283 285 285 285 287 288 288 288 289 289 289 290 290 290 290 291 289
270 271 272 274 275 276 277 277 277 277 277 272 271 271 270 269 269 271 271 271 271 271 271 271 272 272 274 274 275 275 275 276 276 276 275 274 272 271 271 271 271 270 271 276 279 275 276 277 276 279 277 275 275 279 282 283 284 284 284 284 284 286 287 287 287 288 288 289 289 290 290 290 290 288
269 270 271 273 275 276 277 278 278 278 278 276 273 272 271 271 273 274 272 272 273 272 272 272 272 272 273 273 273 273 274 275 275 276 276 276 274 273 272 271 271 271 273 276 279 278 275 277 276 278 278 278 278 279 278 282 283 283 284 284 283 284 285 285 286 286 288 288 289 289 289 290 290 289
270 271 272 272 274 276 277 278 278 278 278 278 276 273 276 277 277 275 275 274 274 273 273 273 273 273 272 272 273 273 274 274 275 275 276 276 276 276 275 274 272 272 273 278 280 278 277 276 277 277 277 277 277 278 278 278 280 282 283 283 284 284 285 284 285 285 286 286 286 288 288 289 289 290
270 271 272 274 275 276 277 278 278 278 278 277 276 278 277 277 277 277 276 275 275 274 273 273 273 273 273 273 273 274 274 275 275 275 276 276 276 277 277 277 277 276 277 278 279 279 277 276 278 277 276 278 277 277 278 277 278 281 282 283 283 284 284 284 284 284 285 285 285 288 289 289 290 290
270 271 272 274 276 277 278 278 278 278 277 276 277 278 278 277 277 275 274 274 274 274 274 273 273 273 274 274 274 274 275 276 276 276 276 276 276 276 276 277 277 278 278 278 278 278 278 277 278 278 278 277 276 276 275 279 280 280 278 282 282 283 283 283 283 284 284 285 284 284 284 284 285 287
270 272 274 276 276 277 278 278 278 277 277 277 277 277 277 276 275 274 273 273 273 273 273 273 274 274 275 275 276 277 277 277 278 277 277 276 276 276 276 276 277 278 278 279 279 279 278 278 277 278 279 279 277 278 278 277 277 277 278 280 278 280 282 283 283 283 284 284 284 284 283 283 283 284
271 273 274 275 276 276 277 276 276 275 276 277 277 276 276 274 274 273 272 272 272 272 273 273 274 274 275 276 277 278 278 277 276 277 277 277 276 277 276 276 276 277 278 278 278 278 278 278 278 278 278 278 279 278 278 278 277 278 280 279 279 282 281 282 282 283 283 282 283 283 284 284 284 285
270 270 272 273 275 275 276 276 276 276 276 275 275 273 273 273 273 273 272 272 272 272 273 273 274 275 276 277 277 277 277 276 276 277 277 276 276 277 277 276 275 276 277 277 277 277 277 278 278 279 277 277 278 279 279 279 278 278 279 280 280 276 277 281 282 282 282 282 282 282 283 283 283 284
270 270 272 272 273 274 274 274 274 274 274 273 273 273 273 273 272 273 274 274 273 273 273 273 274 274 275 275 276 276 276 276 277 278 277 276 276 277 277 275 274 275 276 277 276 277 278 278 279 279 279 279 277 278 279 278 278 278 278 280 280 280 281 279 280 281 282 282 281 280 281 281 281 282
268 270 270 270 271 272 272 271 271 271 272 272 273 272 272 272 271 271 271 270 271 272 272 272 272 272 273 274 275 275 275 276 276 277 277 277 276 277 276 274 274 274 274 275 277 277 277 278 279 280 280 280 280 279 278 277 278 279 278 279 280 280 280 281 281 281 282 281 279 280 279 280 280 281
267 268 268 270 270 271 270 270 271 271 271 271 271 270 271 271 271 271 271 271 271 272 272 272 272 272 272 272 273 273 274 274 275 277 277 276 277 276 275 274 274 275 275 275 276 277 277 277 278 279 279 278 279 278 279 278 277 278 279 279 279 279 280 280 281 281 281 279 279 279 278 278 279 279
267 267 268 269 270 270 271 270 270 271 270 270 270 270 270 270 270 271 271 271 271 271 271 271 271 271 271 271 272 272 273 273 274 275 276 276 276 275 275 274 275 275 275 275 276 277 277 276 276 275 275 275 275 277 279 279 278 278 279 279 279 279 279 281 280 280 279 279 279 278 278 279 277 277
265 267 268 268 269 270 270 270 270 270 270 270 270 270 270 269 270 270 270 271 269 269 269 269 270 270 270 271 271 272 272 273 273 273 274 275 275 275 276 275 275 275 276 276 276 277 277 275 275 273 271 271 271 271 273 279 279 278 277 277 279 279 280 279 278 279 279 278 278 278 277 276 275 275
264 266 268 268 269 269 269 270 270 270 270 270 270 270 269 269 269 270 266 266 266 267 268 268 268 269 270 270 271 271 272 272 272 273 273 274 275 275 274 275 275 275 275 276 277 277 277 275 275 273 272 271 270 270 272 277 278 280 277 277 278 279 279 278 276 275 276 278 278 278 277 278 277 276
264 266 266 268 268 269 269 270 270 270 270 270 270 269 269 269 268 264 263 264 265 266 267 267 267 268 269 269 269 270 270 271 272 272 273 273 273 274 274 274 275 275 275 276 276 277 277 276 275 274 273 272 271 271 272 275 275 277 280 279 277 278 280 278 275 274 275 276 277 278 279 278 277 276
265 265 266 267 268 269 269 269 269 269 269 269 268 267 267 266 265 264 264 265 265 266 267 267 267 267 267 268 269 269 269 270 270 271 272 273 273 274 274 274 274 275 275 275 275 276 276 276 276 275 275 274 273 274 275 274 274 276 278 280 278 278 279 278 276 276 275 275 275 275 275 276 276 277
266 266 267 268 268 269 269 269 269 269 268 267 267 267 266 265 265 264 265 265 265 264 265 266 266 267 267 267 267 268 268 268 269 270 271 272 273 274 274 274 274 274 274 274 274 275 275 276 276 276 276 276 277 277 277 275 276 277 277 279 280 279 277 278 277 277 276 276 275 274 274 275 273 272
267 267 268 269 269 270 269 268 268 266 266 265 264 265 265 265 265 265 265 265 264 264 264 264 264 264 265 266 266 267 267 268 269 269 270 271 272 274 275 274 274 274 274 273 274 274 275 277 278 278 277 278 278 277 276 273 272 273 274 275 278 279 277 274 276 277 278 277 276 275 275 274 273 274
267 267 267 268 268 267 266 265 265 264 263 263 263 263 262 263 264 265 263 262 260 260 262 263 263 263 263 264 265 266 265 266 267 269 270 271 272 273 274 273 273 273 273 273 274 274 276 277 276 276 277 278 277 274 273 274 274 273 274 274 274 276 278 277 277 275 276 276 276 275 275 274 275 274
264 263 263 263 263 264 263 263 263 263 263 263 262 262 262 262 262 262 262 261 260 261 262 263 263 263 263 264 264 265 265 265 267 268 269 270 271 272 273 273 273 274 274 274 275 274 274 274 277 277 277 277 276 276 274 275 275 275 272 273 273 274 274 277 277 277 277 276 275 274 275 274 274 272
262 262 262 262 261 261 261 261 261 262 261 261 261 261 262 262 262 262 263 262 262 262 262 262 262 262 262 263 264 264 265 265 267 268 269 270 271 272 272 274 275 274 274 274 274 273 274 275 274 277 276 275 276 275 275 275 275 273 272 272 273 273 272 273 275 276 275 276 277 277 277 276 275 275
261 261 261 261 261 260 260 260 260 260 260 260 261 261 261 262 262 261 261 261 261 260 259 260 260 261 261 261 262 263 265 267 267 267 268 268 269 271 272 273 274 275 275 275 274 273 273 274 275 276 276 276 276 276 275 275 275 272 272 271 271 272 272 271 271 271 271 270 273 276 277 277 277 277
Wind_Speed
10 10 13 12 12 11 11 11 10 11 10 10 9 10 10 10 11 9 9 8 8 5 3 4 5 3 2 3 2 3 5 5 4 4 5 5 5 7 11 14 16 17 17 17 19 21 22 22 22 22 21 20 20 20 19 20 21 22 20 12 9 12 11 10 15 16 19 19 15 13 7 8 10 8
9 10 10 9 9 9 11 11 11 11 10 10 10 9 9 8 10 9 10 10 6 7 5 4 5 3 3 3 4 4 5 6 7 5 5 5 6 10 12 13 14 15 16 16 18 20 21 22 21 21 21 20 19 20 19 18 20 21 21 13 10 10 9 11 13 14 16 19 19 17 15 14 12 8
9 10 11 10 9 9 9 9 9 9 8 8 8 9 8 8 9 10 10 11 7 5 6 5 5 5 5 4 5 5 5 7 8 7 6 6 8 12 9 10 10 13 14 14 16 18 20 21 20 20 19 19 18 18 20 19 18 19 19 20 11 10 12 11 13 13 14 16 17 17 18 16 15 14
7 9 10 10 9 9 8 9 9 9 8 7 8 8 7 8 9 9 10 12 12 8 9 8 8 8 7 7 6 6 5 6 10 7 6 7 10 7 6 8 10 11 12 12 14 16 18 19 20 20 19 18 18 18 18 18 18 18 18 19 20 9 8 10 11 11 12 13 15 15 16 15 16 16
9 7 7 7 8 6 7 6 6 8 9 8 8 7 8 8 8 9 10 11 12 9 7 8 8 8 7 7 6 7 6 6 6 7 7 7 6 7 6 6 9 10 11 11 11 14 16 18 19 19 19 17 17 17 17 18 17 17 17 17 17 16 3 5 8 9 8 10 13 15 16 16 15 16
8 7 8 9 9 6 6 5 5 6 6 8 8 8 8 8 8 8 9 10 10 11 8 8 7 7 7 7 6 6 7 7 6 7 7 6 7 6 6 6 6 10 11 11 11 12 14 16 18 19 19 18 16 16 16 17 16 15 16 15 15 16 12 4 7 9 8 10 13 15 15 15 15 16
8 8 8 8 8 6 7 7 7 6 6 7 8 9 7 8 8 9 9 9 10 11 9 8 8 7 7 7 7 7 6 7 6 7 7 7 7 6 7 6 6 9 11 11 11 12 14 15 16 18 19 18 17 16 16 16 14 14 15 14 14 13 13 12 7 6 6 8 9 13 14 14 14 13
9 9 9 8 8 7 7 7 7 7 7 8 7 8 9 8 9 9 9 9 9 9 10 8 8 7 7 7 7 7 7 7 7 6 7 7 7 7 7 7 7 7 11 12 12 13 14 15 16 17 19 19 17 16 15 16 13 12 14 14 12 12 11 11 10 7 3 4 5 6 10 11 11 11
10 10 9 9 8 8 8 7 7 7 7 7 7 8 8 8 8 8 8 8 8 9 10 10 8 8 8 8 8 7 8 8 8 8 8 7 8 8 7 6 6 8 11 13 14 14 15 16 16 17 18 19 18 17 17 16 13 12 12 13 12 11 10 9 9 8 7 4 3 4 6 10 9 9
9 9 8 8 8 9 9 8 8 8 8 8 8 8 8 7 6 7 8 8 8 9 10 10 10 8 8 7 7 7 7 8 7 8 7 7 6 6 6 6 5 5 5 5 6 8 10 12 14 16 16 17 18 18 17 17 15 12 11 10 11 11 10 9 8 6 6 6 4 3 6 8 6 6
10 10 9 9 10 9 9 8 8 8 8 8 9 9 8 8 7 8 8 8 9 9 9 9 9 9 8 8 8 7 7 8 8 8 7 6 6 6 5 5 4 4 5 7 11 10 10 11 11 11 12 14 17 19 18 17 16 13 13 12 11 11 11 10 8 6 4 4 4 4 3 6 7 5
10 10 10 10 11 10 9 9 8 9 9 8 8 9 8 9 9 8 8 7 8 8 8 8 8 7 8 7 7 6 6 7 6 6 6 7 6 5 5 5 6 4 3 5 5 6 8 9 13 16 17 17 16 15 16 19 18 16 15 14 11 10 11 11 9 7 4 3 3 2 2 1 5 6
10 11 10 10 11 12 14 16 14 12 11 8 8 9 9 9 9 8 8 8 7 8 8 8 7 7 7 7 6 6 6 6 6 5 4 6 6 6 5 6 6 6 7 6 5 4 4 6 5 6 6 7 12 13 16 14 16 17 16 16 13 12 12 12 11 9 7 5 4 4 4 4 3 3
11 11 10 10 16 17 17 17 18 17 17 17 11 8 9 9 9 9 9 8 8 8 8 8 7 7 7 6 6 6 6 6 7 7 6 5 5 6 5 6 5 6 6 7 6 6 5 4 5 6 6 6 8 7 8 8 10 12 14 15 15 14 13 12 11 11 10 8 7 6 6 5 4 4
10 10 11 10 13 15 16 15 19 19 20 20 20 18 15 12 10 9 10 9 8 8 8 7 7 7 7 7 5 6 6 5 6 6 6 6 5 4 5 4 4 2 5 5 6 6 5 5 5 5 6 6 5 7 7 12 15 17 17 16 15 15 14 13 13 12 11 11 10 9 8 7 6 5
9 9 9 10 9 10 11 12 13 17 21 21 21 22 21 19 18 16 11 9 9 9 8 8 8 7 7 6 5 5 4 5 5 5 6 6 5 5 4 4 3 5 4 6 6 7 7 6 7 6 5 5 6 6 9 14 15 16 18 18 17 15 15 15 14 13 12 12 11 10 9 8 7 6
9 9 9 9 9 9 16 14 11 10 12 18 22 22 22 22 22 20 19 17 10 7 9 8 8 7 6 6 6 4 4 4 5 5 5 5 6 5 5 4 5 6 7 6 6 6 8 5 5 5 6 4 5 6 11 13 13 14 15 16 16 16 15 16 16 15 14 12 12 10 9 9 8 7
10 11 10 9 9 10 10 10 11 10 10 9 11 13 14 13 17 21 22 21 21 16 10 9 9 8 6 6 4 4 4 5 5 5 6 6 6 6 5 5 5 7 5 3 6 5 8 7 6 6 6 6 5 3 6 13 14 14 14 14 15 15 15 14 14 15 14 13 12 11 10 9 8 8
11 11 11 11 10 10 10 9 12 11 10 10 9 10 11 12 12 12 13 12 11 12 12 11 11 9 8 8 7 6 5 5 6 5 6 7 8 7 7 7 6 6 5 5 4 3 8 6 5 6 6 4 4 4 7 13 13 14 14 15 16 16 16 15 15 15 15 15 13 12 11 10 10 9
12 12 12 11 11 10 10 13 19 16 11 10 9 10 10 10 11 12 13 17 16 13 11 10 10 10 11 13 10 9 7 6 5 6 7 6 6 6 6 7 5 4 3 6 6 5 6 4 5 7 6 6 6 6 6 12 16 15 15 16 17 17 16 16 16 16 16 16 15 14 13 12 11 10
13 12 13 12 10 11 11 14 18 19 17 9 10 9 10 9 9 9 11 17 21 21 22 21 20 19 20 20 19 18 18 12 7 5 5 6 5 5 6 6 5 5 4 2 4 6 6 6 4 5 4 5 6 6 6 5 11 16 16 17 17 17 16 16 16 16 16 17 16 15 15 13 10 10
11 13 19 16 11 10 9 16 17 18 16 9 10 10 9 10 10 9 8 6 10 20 22 22 22 21 19 18 18 17 16 17 13 7 7 6 4 6 5 5 5 6 5 4 4 4 5 7 3 5 5 7 5 5 5 5 5 12 15 18 18 18 17 17 17 16 17 17 16 16 15 12 9 6
11 11 15 21 17 12 13 16 16 17 15 9 10 9 9 9 10 10 9 9 8 7 7 9 11 12 15 13 10 10 18 18 15 9 9 6 6 6 5 6 6 7 5 5 4 5 7 4 6 4 5 3 5 6 5 4 3 3 5 7 10 16 18 18 17 17 17 17 17 16 15 13 9 5
11 11 10 14 21 21 19 18 18 17 18 12 10 9 9 9 11 8 9 10 8 8 8 8 8 9 8 7 7 7 7 9 9 9 9 8 8 7 8 7 7 7 7 4 3 2 6 4 5 3 4 6 3 2 7 5 4 4 3 5 4 10 15 14 13 17 19 18 18 17 16 14 10 6
10 11 11 10 16 22 21 20 20 19 20 18 11 11 10 11 11 9 7 10 14 8 7 7 7 7 7 7 7 7 7 7 7 7 8 8 9 8 9 9 8 8 10 7 9 3 4 2 5 5 4 2 5 3 3 3 3 2 1 2 3 4 6 7 6 7 11 18 19 19 18 17 17 10
11 11 10 11 14 20 21 22 21 21 20 22 12 11 19 19 20 12 8 6 7 8 7 7 7 7 7 7 7 8 8 8 8 7 7 8 9 9 9 10 9 8 10 6 10 5 5 6 6 6 5 4 3 2 1 3 2 3 2 2 3 3 3 4 5 5 5 5 5 7 9 18 18 18
11 10 10 10 17 20 21 22 23 22 23 18 10 16 18 22 23 17 8 6 6 7 7 7 7 7 7 7 7 7 8 7 7 8 8 8 9 9 9 10 9 9 9 7 6 6 5 7 7 7 7 4 4 3 1 1 2 0 2 0 1 2 1 2 3 4 4 4 4 9 7 8 13 15
10 10 10 10 18 20 20 22 23 23 20 11 15 14 16 11 7 4 4 3 4 5 6 8 7 7 7 7 7 7 7 6 6 8 8 8 9 10 9 10 11 11 11 9 8 7 6 7 6 6 6 6 4 3 3 2 1 4 4 4 2 1 0 0 1 2 2 2 1 1 2 3 3 5
10 12 17 18 20 19 20 22 22 19 20 20 16 14 7 7 4 3 2 2 4 5 7 7 7 8 6 6 6 6 6 6 6 7 8 8 8 9 10 9 9 9 8 8 8 7 6 6 7 7 6 4 4 3 3 3 1 2 2 2 2 1 3 2 1 1 2 3 2 2 1 2 3 3
18 18 18 21 21 19 18 13 10 8 9 17 15 10 9 4 3 2 1 2 5 6 7 7 7 6 6 6 6 6 6 6 6 6 7 7 8 8 8 8 9 8 8 7 6 6 6 6 7 6 7 5 4 4 3 4 1 2 1 2 3 1 2 1 2 1 2 2 3 2 2 2 1 2
14 15 15 11 12 13 16 16 13 11 10 8 8 5 4 4 3 2 2 3 5 6 6 7 6 5 5 5 6 7 7 7 7 7 7 7 7 8 8 8 8 8 8 8 8 7 6 6 7 6 6 6 4 4 3 2 3 2 0 1 0 2 4 3 2 3 3 2 1 2 0 1 1 3
9 10 14 15 11 10 9 10 8 7 8 7 5 5 5 4 3 2 3 6 6 6 5 5 5 5 5 5 4 5 7 7 6 7 7 7 7 7 7 7 7 7 5 6 7 7 7 7 7 7 7 6 6 5 3 2 3 2 1 1 1 2 3 4 1 3 3 3 3 3 1 1 1 1
8 8 9 10 10 10 9 7 7 7 6 7 6 5 4 3 3 2 3 6 7 7 6 6 6 5 5 6 5 5 4 4 5 5 6 7 8 7 7 7 6 6 6 6 6 6 7 6 7 7 5 5 5 4 4 4 3 2 2 2 2 1 3 4 3 3 4 2 2 4 4 3 2 1
9 9 9 10 11 10 7 7 8 8 7 7 6 5 5 4 3 4 6 6 6 6 6 5 5 5 5 5 5 5 6 5 5 5 6 5 5 6 6 6 7 6 6 6 5 6 6 6 6 6 1 1 2 1 2 4 4 2 2 2 2 2 2 2 2 4 4 3 4 3 4 3 3 1
11 10 11 8 7 8 9 8 8 7 8 7 8 7 5 4 4 6 6 6 5 4 4 4 4 4 4 5 4 5 6 6 5 5 5 6 6 6 7 8 8 8 7 6 6 5 6 7 6 3 1 1 2 3 5 4 3 4 2 3 2 3 2 2 4 3 2 3 2 1 2 4 4 4
7 7 11 11 7 7 9 8 7 8 8 8 7 6 6 5 4 5 6 5 3 3 3 4 4 4 5 5 5 5 5 6 6 6 6 6 6 7 7 8 8 8 7 6 6 5 6 7 7 6 5 5 5 5 7 11 10 4 4 4 4 2 2 2 3 4 2 3 2 3 3 2 4 5
9 8 9 10 9 7 7 8 8 8 8 8 7 6 5 5 4 4 2 4 3 2 2 3 3 4 4 4 5 5 6 6 6 7 6 6 6 6 6 7 7 7 8 7 6 7 6 8 8 8 7 6 7 8 7 4 14 15 7 6 4 3 2 4 3 3 3 3 3 3 3 4 3 4
12 10 8 8 8 8 6 6 7 7 7 6 6 5 4 3 3 4 3 2 2 3 3 2 2 3 3 4 4 5 5 5 5 6 6 6 6 7 7 7 6 6 7 6 7 7 7 7 8 8 9 8 8 8 7 4 2 7 13 8 7 5 4 4 4 3 4 3 3 4 3 1 3 4
11 11 11 10 9 6 7 8 7 7 6 5 5 4 4 3 3 3 3 3 3 3 3 2 2 2 2 3 4 4 4 5 6 6 7 6 6 6 6 6 5 5 5 6 6 7 7 8 7 8 8 8 8 6 5 5 6 7 12 20 9 4 4 5 4 4 4 4 2 2 5 4 5 8
11 10 10 10 9 8 7 8 8 6 6 5 4 4 5 5 4 4 4 3 3 3 2 2 2 2 2 3 4 4 4 5 6 6 6 6 6 7 6 6 5 5 5 5 5 6 7 8 8 7 7 6 4 4 5 2 2 3 3 12 18 8 1 2 5 4 4 4 4 4 3 3 2 1
10 10 9 9 8 8 6 5 5 5 4 4 4 4 4 4 4 4 3 3 3 3 3 2 2 2 2 2 3 3 4 4 5 6 6 7 7 7 7 5 4 4 5 5 6 7 8 8 9 11 8 5 4 2 5 4 4 4 4 3 8 10 2 3 1 0 2 5 5 6 5 5 4 5
7 8 4 3 5 5 4 4 4 5 4 3 4 4 3 2 2 4 3 3 2 1 0 1 1 2 2 2 3 4 4 5 5 5 6 6 6 7 6 3 4 5 6 7 6 6 5 5 7 8 6 5 5 6 6 6 5 5 5 4 3 4 7 4 4 6 4 1 6 5 4 3 3 4
5 5 5 4 5 5 5 4 4 4 4 4 4 4 4 3 3 3 3 3 3 2 2 2 1 1 1 2 2 3 4 4 5 5 5 6 6 5 5 6 7 7 7 6 5 2 1 3 7 8 7 7 6 6 6 6 5 5 6 5 4 3 2 4 5 6 7 8 7 3 1 1 2 4
5 5 5 5 5 5 5 4 4 3 4 4 4 3 3 3 3 4 3 3 3 2 2 1 1 1 1 1 2 2 3 4 4 5 5 5 6 5 6 6 6 7 7 5 2 3 2 1 0 5 7 6 6 6 7 5 5 5 6 5 5 5 4 4 5 8 9 10 9 5 6 6 4 4
6 5 5 5 5 5 4 4 4 4 4 4 3 2 2 2 3 3 2 2 1 1 1 1 1 1 1 1 2 2 2 3 4 4 5 5 6 6 6 7 7 6 7 5 4 4 3 2 2 2 3 5 5 5 4 5 3 6 6 6 6 5 5 5 5 5 4 3 7 8 7 9 10 10
Wind_Direction
240 242 243 247 251 248 248 251 254 257 257 257 261 263 269 272 278 284 282 280 283 276 252 265 265 230 264 305 292 231 243 248 264 301 304 301 301 304 314 318 319 317 317 321 323 321 323 329 332 336 340 346 351 353 2 357 357 360 2 28 49 58 54 50 56 47 48 51 55 58 62 175 202 215
241 243 240 239 241 244 249 253 255 254 254 255 257 258 257 258 262 270 275 278 277 283 288 294 297 309 298 299 317 308 299 293 297 296 298 299 293 301 306 311 311 312 315 320 318 316 318 321 324 329 332 338 342 345 349 355 355 354 359 4 46 93 80 71 77 79 67 58 52 52 59 68 77 79
233 235 241 243 245 246 247 246 246 248 248 248 251 256 256 254 259 265 268 276 264 279 283 283 298 308 309 323 307 313 313 308 306 304 297 290 295 299 300 299 303 304 308 312 314 313 313 313 318 322 326 328 333 339 338 344 348 350 356 4 25 68 89 97 97 84 81 80 77 66 59 60 67 66
234 234 234 234 240 242 245 245 245 244 241 244 247 247 249 250 252 254 261 262 270 276 285 288 286 289 288 290 295 290 296 299 293 283 284 292 295 299 297 301 297 299 299 303 304 308 308 311 315 316 318 321 326 331 331 333 337 343 355 359 358 10 70 89 90 90 87 85 83 84 81 70 64 63
234 233 235 239 238 242 247 247 243 245 240 233 237 241 243 247 247 248 253 260 272 273 272 276 276 272 271 274 275 281 282 281 288 291 291 294 296 293 293 291 291 290 293 294 298 300 304 307 309 311 311 315 319 322 323 322 326 340 349 353 354 353 32 73 92 94 99 102 101 95 91 89 81 72
235 234 232 231 231 230 239 249 265 262 252 238 233 235 236 240 243 244 248 257 265 275 277 278 283 294 297 288 282 288 285 283 282 291 291 286 285 290 290 290 288 291 290 292 292 294 298 301 304 305 305 309 311 313 311 311 325 333 339 341 347 354 11 84 100 98 110 118 111 102 97 94 89 86
230 229 228 229 226 221 222 226 233 245 262 270 244 235 236 239 242 243 246 255 265 272 275 278 282 280 286 286 286 279 279 286 290 289 296 295 280 277 282 286 283 286 283 287 289 294 294 296 298 298 300 300 302 304 304 308 317 325 321 327 336 347 354 7 15 110 90 111 113 104 103 96 92 89
224 223 223 223 221 222 223 220 221 222 229 239 250 240 237 239 241 243 246 249 260 271 278 275 275 279 286 285 293 300 298 293 285 275 270 280 301 295 291 289 292 286 288 287 290 291 290 290 290 291 293 294 296 296 295 294 303 311 309 312 323 328 337 347 357 17 59 72 95 120 114 105 94 90
228 223 219 219 215 216 219 223 222 220 222 225 232 238 242 242 239 240 243 250 255 264 269 277 276 280 279 285 287 292 295 293 290 292 286 279 268 273 265 268 269 284 289 289 286 284 282 281 280 279 280 283 286 287 286 286 291 292 293 299 306 312 319 328 342 346 357 14 59 113 130 118 111 110
228 230 227 221 214 213 215 220 221 221 225 228 230 231 233 236 244 247 246 244 249 255 264 271 280 276 279 278 276 274 270 277 285 284 287 286 289 280 281 272 269 265 263 269 276 278 279 274 272 269 267 273 276 278 279 281 281 278 279 283 290 298 302 308 314 331 341 347 3 46 91 102 109 122
231 229 228 227 223 222 221 219 219 224 227 227 228 230 230 236 239 238 240 244 248 251 259 264 267 277 276 276 280 281 281 278 275 280 284 291 279 278 280 290 299 289 279 271 270 269 268 274 280 282 279 268 266 269 273 278 276 274 272 270 274 281 288 291 294 300 315 320 335 352 60 119 130 129
227 229 230 232 231 225 221 217 214 213 219 218 225 224 224 224 225 229 232 234 236 242 248 254 263 268 274 277 275 281 282 282 277 271 269 274 286 285 278 276 287 287 289 297 298 282 274 265 257 261 263 265 268 267 270 269 270 272 269 267 262 264 271 279 282 280 275 273 287 299 303 146 145 143
225 227 227 227 228 226 224 221 216 213 209 209 214 216 216 215 217 219 224 225 228 233 239 246 252 258 265 269 279 280 279 275 279 277 274 270 277 289 303 310 291 288 287 276 270 266 259 259 254 234 231 236 242 254 256 262 267 264 261 260 256 253 253 259 267 270 265 255 244 242 239 227 199 168
221 226 227 228 228 228 227 224 222 220 215 213 213 211 205 210 210 215 217 221 224 229 233 237 241 246 248 257 261 271 275 288 297 303 296 294 288 283 295 290 325 286 275 283 283 280 249 236 255 251 244 230 215 223 228 231 241 255 258 255 251 246 246 247 251 253 255 253 247 239 236 232 219 199
212 217 225 230 231 230 229 228 227 226 223 221 219 220 217 208 206 207 213 218 221 223 229 234 234 236 245 247 259 264 279 279 279 276 283 285 296 311 296 304 276 303 316 300 299 294 294 257 241 239 245 243 227 212 222 228 231 239 248 254 250 241 237 236 238 242 245 246 244 238 234 235 231 223
209 209 215 223 227 226 223 221 224 228 229 229 228 227 225 223 218 213 208 211 213 218 225 229 230 234 237 243 239 254 260 270 279 284 284 279 279 276 286 290 308 264 8 341 317 301 306 330 318 291 245 238 242 231 227 231 234 231 235 241 248 249 240 234 232 233 238 241 240 236 234 231 231 227
213 213 212 214 217 221 222 221 219 217 224 230 232 231 230 228 227 226 224 220 218 210 219 227 234 230 234 234 237 232 248 263 280 295 296 296 289 284 287 292 297 315 318 316 331 311 291 303 300 305 302 265 239 242 240 240 238 238 235 235 240 247 246 241 239 235 232 234 238 240 236 234 230 225
214 216 216 214 216 214 214 214 211 209 214 218 226 230 230 229 229 231 232 230 226 223 221 221 228 227 225 240 239 215 220 235 246 262 276 288 294 296 288 282 284 287 319 293 268 294 308 305 287 290 293 295 282 265 246 237 238 239 237 238 238 241 245 246 247 247 244 236 234 237 239 239 235 229
220 221 220 218 218 212 207 205 198 198 203 208 215 219 222 226 226 226 229 229 229 228 220 221 228 229 228 234 242 248 249 237 235 245 266 275 282 290 296 299 281 276 252 249 271 266 257 273 274 267 265 266 271 267 267 252 245 239 239 241 241 240 241 244 247 248 248 249 245 238 237 240 242 239
223 225 223 219 218 217 211 205 205 198 195 200 204 210 217 219 222 226 227 227 227 227 230 224 219 220 227 236 238 238 241 241 237 254 266 265 267 273 283 277 284 273 258 200 212 248 279 268 270 271 243 228 236 244 236 239 238 236 232 232 232 232 233 235 239 243 245 245 244 243 243 240 240 241
216 217 219 219 218 215 212 209 213 211 191 188 198 204 210 214 217 222 226 231 233 233 233 236 236 229 229 237 244 246 243 234 223 232 250 257 247 257 266 277 287 277 268 249 209 233 263 281 271 269 277 267 253 243 235 227 226 225 230 231 230 230 232 234 235 238 242 244 244 242 239 239 238 240
219 219 221 220 222 223 209 211 215 213 199 183 196 203 208 210 215 224 222 220 233 238 242 243 244 245 244 240 239 239 238 237 227 196 221 235 242 244 252 276 281 292 304 282 264 262 242 254 271 283 283 263 254 251 248 243 233 214 218 225 226 226 229 232 234 238 240 242 244 245 242 238 228 228
220 221 221 222 221 218 222 219 213 210 198 173 191 197 204 214 219 226 212 214 217 218 229 242 248 254 254 254 253 248 246 240 235 206 209 212 226 246 251 261 283 299 278 256 220 244 261 253 250 242 262 266 243 230 226 225 231 220 178 216 227 226 225 227 233 236 237 238 240 241 241 238 222 215
213 217 218 220 222 221 220 220 216 212 206 175 184 192 204 213 227 222 212 214 211 212 207 221 222 230 230 234 241 241 245 249 243 230 202 203 210 226 247 260 270 275 279 298 4 270 265 266 284 267 249 250 279 210 218 210 205 215 199 192 191 218 221 227 230 233 235 236 236 237 235 234 223 213
213 211 214 217 218 221 221 218 217 213 212 196 183 196 206 217 225 213 207 211 210 210 210 213 217 220 221 223 226 227 226 231 228 221 214 202 198 212 232 248 253 256 264 270 285 263 283 278 277 289 290 261 260 301 346 238 233 200 203 210 216 203 189 207 214 220 228 231 232 232 231 230 225 215
218 215 212 214 217 217 219 221 215 213 213 213 196 194 213 223 230 230 223 217 205 208 216 218 216 214 212 217 217 221 220 219 218 213 214 215 205 203 219 231 234 241 257 260 266 265 279 285 268 275 270 286 284 279 285 35 276 174 233 190 207 220 193 190 200 214 204 199 210 227 231 229 227 224
216 218 218 219 216 214 217 219 215 212 214 217 212 210 214 220 229 232 237 234 224 210 203 208 220 219 214 214 219 220 218 213 204 206 210 208 210 218 223 227 232 244 261 282 293 299 306 293 315 319 308 295 295 335 284 184 90 234 79 73 70 30 0 191 200 199 205 190 186 205 205 228 235 232
221 222 220 223 220 216 215 217 218 214 215 209 212 224 234 238 209 189 198 223 241 239 217 210 219 230 225 222 219 219 215 216 202 203 205 206 203 208 219 227 234 234 242 247 250 254 260 274 285 283 286 300 297 297 291 252 92 112 164 202 122 142 5 353 225 159 138 108 120 175 161 184 196 228
222 224 224 222 221 218 214 218 219 217 216 209 210 225 231 180 196 201 194 253 268 250 240 227 217 230 230 222 221 217 211 210 199 191 203 206 205 207 215 222 227 235 238 240 247 249 247 256 269 281 294 302 301 293 320 297 211 179 180 134 90 232 171 187 224 133 138 146 137 183 177 188 204 194
221 226 226 226 222 219 217 219 216 211 204 207 211 195 174 190 202 200 203 242 252 257 253 247 235 225 221 226 221 214 212 211 217 213 211 202 208 206 213 221 229 231 232 233 237 241 241 249 254 262 271 279 289 289 299 306 14 259 110 101 208 144 56 161 144 163 163 115 157 142 158 182 180 206
216 222 230 236 235 228 224 221 217 202 191 193 177 162 176 197 200 196 207 236 244 245 252 257 262 255 233 215 213 225 215 212 216 216 219 218 211 197 204 215 229 229 223 220 228 229 235 237 244 249 248 256 272 275 288 294 297 329 34 203 124 125 232 181 158 135 106 131 106 87 84 77 81 36
226 214 220 232 243 235 228 221 207 182 164 168 174 185 198 190 172 181 213 234 237 243 250 258 264 273 278 269 241 219 220 224 221 210 217 219 217 203 193 200 218 233 238 198 206 217 218 229 231 231 237 240 249 260 255 265 271 275 263 272 147 189 47 108 174 125 137 136 145 115 131 145 142 221
226 228 217 213 220 226 216 186 161 165 166 182 191 193 197 175 161 176 196 214 224 224 226 234 238 244 247 249 255 263 266 248 232 220 222 225 227 218 201 202 209 224 230 229 199 191 201 216 226 233 232 227 232 250 273 266 241 257 290 282 245 201 149 178 198 153 135 128 136 186 154 145 140 200
209 217 220 212 212 206 177 168 178 174 175 187 194 180 187 185 185 191 203 212 216 216 215 222 225 231 235 241 241 244 246 252 259 255 242 229 213 218 218 225 226 224 229 231 217 192 185 190 208 213 234 15 5 340 262 255 257 226 230 256 263 222 210 207 146 116 126 149 192 188 149 149 146 152
210 209 211 210 195 175 176 178 177 177 186 190 199 196 180 187 186 198 204 208 204 201 203 213 228 233 237 240 242 242 244 247 252 253 243 235 232 226 224 226 220 212 215 222 224 201 172 169 173 152 155 235 268 253 233 237 256 239 244 234 239 239 226 177 125 108 143 183 232 129 174 174 147 153
218 221 206 203 205 181 172 176 175 181 187 193 195 193 182 181 180 188 202 192 179 186 196 207 216 225 229 234 235 238 242 245 246 245 245 234 229 228 228 230 228 216 207 209 216 209 172 163 158 170 183 188 209 235 245 216 214 232 228 230 231 226 207 97 92 131 173 207 210 177 215 172 177 179
208 219 209 201 201 196 182 179 175 184 194 194 189 190 172 173 177 176 90 94 131 195 204 196 208 215 227 235 241 239 238 235 238 239 243 247 245 241 237 235 230 227 218 208 202 211 176 169 167 177 184 192 197 216 230 155 204 208 213 225 231 218 196 137 132 144 204 206 197 192 195 226 160 150
208 212 213 207 203 199 186 186 184 190 190 186 179 169 164 172 130 102 130 146 172 196 197 193 212 217 227 236 233 237 236 240 244 243 244 239 237 235 233 234 232 223 221 217 211 214 188 178 178 184 192 198 199 207 212 179 118 211 211 218 221 215 198 148 153 179 198 217 204 197 207 276 129 152
197 204 209 209 207 191 185 191 186 188 174 162 150 146 141 119 124 139 163 185 187 200 198 195 200 212 220 230 235 237 240 235 235 236 239 242 241 240 237 236 235 233 219 216 207 213 210 198 189 193 198 208 211 205 182 188 198 201 204 210 217 219 207 158 177 188 186 174 180 63 62 82 66 84
192 202 206 205 202 196 184 184 190 183 159 156 142 146 142 147 150 162 176 181 178 189 205 210 207 203 218 230 238 241 242 247 248 252 250 247 240 237 237 238 239 234 231 215 210 216 211 207 196 197 198 210 223 204 169 168 58 80 124 204 211 224 278 165 181 195 186 179 155 149 163 174 150 177
185 193 200 194 191 187 170 150 137 125 131 121 119 126 131 143 151 169 173 174 165 171 189 192 196 194 222 227 231 237 244 244 240 239 243 250 257 259 245 239 245 242 242 232 219 222 219 207 192 184 186 203 221 136 103 112 160 147 149 172 212 223 157 43 52 218 224 159 157 173 178 173 180 166
160 169 150 141 144 116 108 114 116 117 112 119 121 133 121 122 146 140 120 106 87 99 165 185 181 185 208 219 232 234 240 246 252 253 252 251 244 242 242 238 247 246 245 239 226 220 219 190 177 177 178 197 199 191 197 189 191 162 158 138 138 189 207 173 95 73 25 118 167 179 174 170 192 178
77 87 96 87 87 94 93 97 105 109 116 119 125 127 134 147 142 152 158 155 171 178 195 196 196 192 208 208 221 228 232 242 247 254 260 260 262 253 236 221 224 233 240 244 228 213 137 163 167 171 178 191 208 203 213 194 201 144 134 139 144 131 134 152 136 108 84 63 60 74 40 134 162 190
70 77 80 79 80 83 83 88 92 96 104 111 112 121 142 149 154 166 171 160 166 176 172 182 180 194 205 233 238 239 240 243 252 259 261 257 254 255 261 265 237 218 230 237 200 112 145 114 139 172 166 189 192 200 211 201 198 140 147 135 129 130 136 118 112 95 74 54 47 87 105 103 92 90
61 65 74 78 83 82 85 89 91 95 96 102 118 135 144 142 143 139 119 113 113 99 105 187 202 211 220 245 247 245 245 265 276 277 271 267 263 261 263 261 265 243 223 213 153 137 126 146 148 157 174 186 191 203 199 214 182 131 137 140 147 144 142 146 140 139 121 100 30 42 107 103 102 101